Regional Weather Roundup
Issued by NWS Upton, NY

Current Version | Previous Version | Text Only | Print | Product List | Glossary On
Versions: 1 2 3 4 5 6 7 8 9 10 11 12 13 14 15 16 17 18 19 20 21 22 23 24 25 26 27
000
ASUS41 KOKX 230509
RWROKX

REGIONAL WEATHER ROUNDUP
NATIONAL WEATHER SERVICE NEW YORK NY
100 AM EDT SUN JUL 23 2017

NOTE: "FAIR" INDICATES FEW OR NO CLOUDS BELOW 12,000 FEET WITH NO
SIGNIFICANT WEATHER AND/OR OBSTRUCTIONS TO VISIBILITY.

NYZ071-072-176-178-NJZ106-104-230600-
NEW YORK CITY METRO AREA

CITY           SKY/WX    TMP DP  RH WIND       PRES   REMARKS
Central Park   HVY RAIN  72  70  93 CALM      29.77F VSB 3/4
Bronx Bot Gard   N/A     72  70  94 SW3       29.76S
LaGuardia APRT HVY RAIN  73  72  96 E3        29.74S FOG
Kennedy INTL   HVY RAIN  73  72  96 NE7       29.75S FOG
Breezy Point     N/A     68 N/A N/A NE5         N/A
Newark/Liberty RAIN      71  70  96 NE6       29.75R FOG
Teterboro      RAIN      72  70  93 CALM      29.74S FOG
$$

NYZ177-179-078>081-230600-
LONG ISLAND NEW YORK

CITY           SKY/WX    TMP DP  RH WIND       PRES   REMARKS
Jones Beach      N/A     68 N/A N/A E13         N/A
Matinecock PT    N/A     73 N/A N/A SE2         N/A
Farmingdale    RAIN      74  70  87 SE5       29.74F
MacArthur/ISP  RAIN      76  70  82 E9        29.73F
Shirley        LGT RAIN  76  72  87 E3        29.75F
Mt Sinai Harb    N/A    N/A N/A N/A MISG        N/A
Westhampton    CLOUDY    74  70  87 CALM        N/A
East Hampton   CLOUDY    69  67  94 CALM      29.75F
Montauk          N/A     72  68  87 NE5       29.77F
$$

NYZ052-065-067-230600-
HUDSON VALLEY

CITY           SKY/WX    TMP DP  RH WIND       PRES   REMARKS
White Plains   NOT AVBL
Larchmont Harb   N/A     73 N/A N/A N3          N/A
Croton O-T Hud   N/A     73 N/A N/A CALM        N/A
Newburgh       CLOUDY    72  68  88 CALM      29.78F
Montgomery     CLOUDY    71  68  90 NE6       29.77F
Poughkeepsie   CLOUDY    71  66  84 CALM      29.76F
Albany         CLOUDY    68  64  87 N3        29.81S
$$

NJZ001-105-106-008-010-013-015-019>022-104-230600-
NEW JERSEY

CITY           SKY/WX    TMP DP  RH WIND       PRES   REMARKS
Newark/Liberty RAIN      71  70  96 NE6       29.75R FOG
Teterboro      RAIN      72  70  93 CALM      29.74S FOG
Caldwell       CLOUDY    72  68  87 E6        29.76S
Somerville     CLOUDY    73  72  96 N5        29.72F
Linden         DRIZZLE   71  69  92 CALM      29.75S
Perth Amboy      N/A     72 N/A N/A NE7         N/A
Sussex         CLOUDY    72  71  97 CALM      29.77S
Andover          N/A     71  69  93 CALM      29.78R
Trenton        CLOUDY    72  71  97 NW3       29.74R
Millville      MOCLDY    77  74  90 SW13      29.75F
Atlantic City  CLOUDY    79  73  82 SW13      29.75R
Wrightstown    MOCLDY    75  73  94 CALM      29.72R
Toms River     PTCLDY    75  73  93 SW9       29.74R
Belmar         CLOUDY    75  73  93 VRB6      29.73S
$$

PAZ047>061-062-071-230600-
EASTERN PENNSYLVANIA

CITY           SKY/WX    TMP DP  RH WIND       PRES   REMARKS
Philadelphia   CLOUDY    80  70  71 SW13      29.75S
Allentown      CLOUDY    72  68  87 CALM      29.76S
Scranton       CLOUDY    71  70  96 CALM      29.79S
$$

CTZ002-004>006-009-010-012-RIZ004-006-007-MAZ004-011-015-230600-
SOUTHERN NEW ENGLAND
 IN CT

CITY           SKY/WX    TMP DP  RH WIND       PRES   REMARKS
Bradley INTL   CLOUDY    70  66  87 N3        29.78F
Hartford       CLOUDY    73  71  93 E3        29.77F
Danbury        CLOUDY    73  68  84 CALM      29.78F
Wtrbury/Oxford CLOUDY    72  63  73 CALM      29.79F
Bridgeport     LGT RAIN  75  70  84 N7        29.75F
Meriden        LGT RAIN  73  67  81 CALM      29.77F
New Haven      CLOUDY    74  68  81 NE3       29.76F
Chester        MOCLDY    72  68  88 CALM      29.78F
Groton         CLOUDY    73  66  78 N6        29.75F
Wilimantic     CLOUDY    73  70  90 CALM      29.78F

 IN RI

CITY           SKY/WX    TMP DP  RH WIND       PRES   REMARKS
Providence     CLOUDY    74  65  73 W3        29.78S
Block Island   CLOUDY    72  70  93 N3        29.77F
Westerly       CLOUDY    72  68  87 N5        29.77F
 IN MA

CITY           SKY/WX    TMP DP  RH WIND       PRES   REMARKS
Boston         CLOUDY    77  67  71 NW6       29.78S
Worcester      CLOUDY    69  62  78 SW7       29.82S
Westfield      CLOUDY    70  66  87 CALM      29.78F
Provincetown   CLOUDY    70  67  90 S6        29.79F
Nantucket      CLOUDY    66  64  93 S3        29.78S
$$

ANZ330-335-338-340-345-350-353-355-230600-
COASTAL MARINE OBSERVATIONS


STATION/POSITION TIME  SKY/WX   TEMP    WIND        PRES    VSBY  WAVE
                                AIR SEA DIR/SP/G                  HT/PER
                 (UTC)          (F)     (DEG/KT/KT) (MB)    (MI)  (FT/S)
NY HARB ENTRANCE 0350            74 76   90/ 12/ 14 1006.1          2/ 6
20 S FIRE ISLAND 0450            72 77   60/ 12/ 14 1006.1          3/ 6
GREAT SOUTH BAY  0430            76 83  200/ 10/ 14   N/A
23 SSW MONTAUK P 0350            76 77              1008.4          2/ 9
15 E BARNEGAT LI 0430               79                N/A           3/ 6
HUDSON CANYON    0350            80 81  180/  4/  6 1006.7          3/ 6
KINGS POINT      0442            74 73  130/  2/  6 1007.1
EXECUTION ROCKS  0445            75      70/  6/  8   N/A
CENTRAL LI SOUND 0430            72      40/  8/ 10   N/A           0
EASTERN LI SOUND NOT AVBL
ROBBINS REEF     0436                   310/  4/  5 1008.0
$$


>>>>>>>>>>>>>>>>>>>>>>>>>>>> KEY <<<<<<<<<<<<<<<<<<<<<<<<<<<
>                                                          <
>     SKY/WX - Sky Condition/Present Weather               <
>     TMP    - Temperature in Fahrenheit                   <
>     DP     - Dew Point in Fahrenheit                     <
>     RH     - Relative Humidity in Percent                <
>     WIND   - Direction (from) and Speed in MPH           <
>     PRES   - Mean Sea Level Pressure (inches of Hg)      <
>     WCI    - Wind Chill Index                            <
>     VSB    - VISIBILITY IN MILES                         <
>     HX     - HEAT INDEX                                  <
>     TC     - TEMPERATURE IN CELSIUS                      <
>     VRB    - VARIABLE WIND DIRECTION                     <
>                                                          <
>>>>>>>>>>>>>>>>>>>>>>>>>>>> KEY <<<<<<<<<<<<<<<<<<<<<<<<<<<




USA.gov is the U.S. government's official web portal to all federal, state and local government web resources and services.